Other Surface Observations
Issued by NWS Tucson, AZ

Home | Current Version | Previous Version | Text Only | Print | Product List | Glossary On
Versions: 1 2 3 4 5 6 7 8 9 10 11 12 13 14 15 16 17 18 19 20 21 22 23 24 25 26 27 28 29 30 31 32 33 34 35 36 37 38 39 40 41 42 43 44 45 46 47 48 49 50
000
SXUS55 KTWC 301916
OSOTWC

WEATHER ROUNDUP FOR SOUTHEAST ARIZONA
NATIONAL WEATHER SERVICE TUCSON AZ
1215 PM MST TUE SEP 30 2014

AZZ504>506-514-302015-
LOCATION       SKY/WX    TMP DP  RH WIND       PRES   REMARKS
TUCSON         SUNNY     83  34  17 CALM      29.92F
DAVIS-MONTHAN  SUNNY     81  37  20 SW3       29.90F
CHILDRENS PARK N/A       78  41  27 SE2               PIMA CO DEQ
ALVERNON/22ND  N/A      N/A N/A N/A N/A               PIMA CO DEQ
CHERRY/GLENN   N/A      N/A N/A N/A N/A               PIMA CO DEQ
TANGERINE      N/A       79 N/A N/A S4                PIMA CO DEQ
CONTL RANCH    N/A       82  43  25 SE3               PIMA CO DEQ
GRANT/1ST      N/A       80  41  25 S1                PIMA CO DEQ
CRAYCROFT/22ND N/A      N/A N/A N/A N/A               PIMA CO DEQ
GOLFLINKS/KOLB N/A       78  40  26 SW2               PIMA CO DEQ
AJO/12TH       N/A       81  41  24 S5                PIMA CO DEQ
SAGUARO EAST   N/A      N/A N/A N/A N/A               PIMA CO DEQ
FAIRGROUNDS    N/A       79 N/A N/A SW3               PIMA CO DEQ
SAGUARO        N/A       83  39  21 W4                *SABINO CYN
SAN CARLOS     N/A       80  40  24 W3                *SAN CARLOS
GREEN VALLEY   N/A       80  41  25 SE4               PIMA CO DEQ
HORSE CAMP CYN N/A       76  32  20 SW7G12            *ARAVAIPA CYN
RINCON MTNS    N/A       64  27  25 SW3               *NR MANNING CAMP
$$

AZZ509>511-302015-
LOCATION       SKY/WX    TMP DP  RH WIND       PRES   REMARKS
SAFFORD        SUNNY     79  33  19 CALM      29.91F
STRAY HORSE    N/A       60  28  29 W9G18             *
TRAIL CABIN    N/A       68  35  29 NW6G12            *N OF GRANVILLE
BLACK HILLS    N/A       80  34  19 W5G10             *N OF FT THOMAS
DRY LAKE       N/A       64  35  34 SW4G10            *NATANES MTNS
NOON CREEK     N/A       74  37  26 E4G10             *PINALENO MTNS
COLUMBINE      N/A       54  24  31 S8G14             *PINALENO MTNS
GUTHRIE        N/A       66  27  23 W6G12             *SW OF GUTHRIE
$$

AZZ502-503-513-302015-
LOCATION       SKY/WX    TMP DP  RH WIND       PRES   REMARKS
NOGALES        SUNNY     80  46  30 W7        29.97F
SELLS          N/A       85  45  25 N3                *
SASABE         N/A       81  36  20 S3                *ALTAR VLY
HOPKINS        N/A       66  31  27 W6                *SANTA RITA MTNS
CARR CYN       N/A       75  49  40 E2                *W OF HEREFORD
$$

AZZ507-508-512-302015-
LOCATION       SKY/WX    TMP DP  RH WIND       PRES   REMARKS
SIERRA VISTA   MOSUNNY   77  46  33 CALM      30.00F
DOUGLAS        SUNNY     78  52  40 VRB5      29.97F
EMPIRE MTNS    N/A       79  36  21 SE5G11            *LAS CIENEGAS NCA
MULESHOE RANCH N/A       75  29  18 W5G13             *PRESERVE
HEADQUARTERS   N/A       74  41  30 W5G13             *CHIRICAHUA MTNS
$$

.............................NOTES.............................
THIS IS AN AUTOMATED COLLECTIVE WITH MINIMAL QUALITY CONTROL.
PIMA CO DEQ SITES HAVE NONSTANDARD WIND SENSOR HEIGHTS.
PIMA CO DEQ SITES DO NOT REPORT WIND GUSTS.
* INDICATES WIND SENSORS LOCATED AT 20 FEET INSTEAD OF 33 FEET.
..............................KEY..............................
SKY/WX - SKY CONDITION/WEATHER
TMP    - TEMPERATURE IN FAHRENHEIT
DP     - DEWPOINT IN FAHRENHEIT
RH     - RELATIVE HUMIDITY IN PERCENT
WIND   - DIRECTION AND SPEED IN MILES PER HOUR (MPH)
VRB    - VARIABLE WIND DIRECTION
PRES   - MEAN SEA LEVEL PRESSURE IN INCHES OF MERCURY
         F - FALLING PRESSURE   R - RISING PRESSURE
         S - STEADY PRESSURE
VSB    - VISIBILITY IN MILES
HX     - HEAT INDEX IN FAHRENHEIT
WCI    - WIND CHILL INDEX IN FAHRENHEIT
N/A    - NOT AVAILABLE
AFB    - AIR FORCE BASE
         DAVIS-MONTHAN IS DAVIS-MONTHAN AIR FORCE BASE
CYN    - CANYON
MTNS   - MOUNTAINS
NCA    - NATIONAL CONSERVATION AREA
NR     - NEAR
VLY    - VALLEY
CONTL  - CONTINENTAL
PIMA CO DEQ - PIMA COUNTY DEPT OF ENVIRONMENTAL QUALITY



USA.gov is the U.S. government's official web portal to all federal, state and local government web resources and services.